Wind_Speed
39 37 38 39 40 38 33 30 29 30 34 33 33 31 29 26 14 11 15 9 8 9 4 3 0 1 2 5 9 9 7 7 9 11 12 13 15 16 17 17 16 15 16 16 16 16 15 16 16
44 43 40 42 43 38 32 33 33 35 34 35 38 37 33 26 20 18 13 15 12 11 5 4 3 4 3 5 8 8 6 6 8 11 13 14 14 14 13 14 16 18 17 17 15 16 14 15 17
40 34 45 46 44 39 34 37 38 36 36 40 41 39 35 28 24 23 18 18 17 9 7 5 7 7 5 3 6 8 7 7 7 10 12 14 13 12 15 17 17 15 17 19 19 20 20 20 20
40 41 40 50 44 35 38 38 42 39 40 41 42 43 39 37 29 25 27 23 19 11 7 9 13 13 9 3 3 5 5 7 8 11 12 13 14 15 16 17 16 17 17 17 16 18 19 20 22
40 41 43 40 47 34 41 44 44 43 43 43 43 47 47 42 33 30 29 27 23 14 9 12 15 17 13 11 7 6 8 8 8 9 11 12 14 15 15 15 16 18 18 18 17 16 18 19 22
50 49 47 44 39 44 50 47 50 45 42 46 45 46 48 45 38 36 33 29 27 16 13 13 15 18 18 13 10 7 9 9 9 10 11 12 12 12 12 14 16 18 20 21 20 19 20 21 23
51 50 52 48 44 38 48 50 47 48 43 47 49 48 47 47 42 40 39 35 33 19 21 17 19 19 19 17 16 11 9 10 11 11 12 14 12 11 11 14 17 19 21 22 23 23 23 24 26
50 51 53 50 49 46 42 55 48 45 45 49 49 50 46 47 43 42 42 38 41 25 25 23 23 22 23 18 20 17 13 11 11 12 11 14 14 13 12 13 16 19 21 23 24 25 26 27 30
51 53 52 54 50 48 51 59 61 45 44 50 51 48 47 43 40 44 45 42 39 25 31 21 23 21 21 23 22 20 16 14 14 14 12 11 12 15 14 14 15 17 20 21 24 26 28 31 32
50 53 49 46 52 51 52 52 68 51 45 46 53 49 47 48 43 43 44 45 45 32 29 27 25 24 25 27 24 23 20 18 16 17 16 13 12 13 15 14 15 17 18 21 23 26 29 31 34
46 53 49 44 39 49 55 55 64 68 46 47 49 48 48 51 50 45 44 46 39 37 34 28 26 28 29 27 28 25 22 20 19 19 20 18 15 15 16 15 16 18 19 21 24 26 28 31 33
40 42 53 49 39 46 41 53 58 74 49 47 50 47 46 52 51 47 46 49 47 40 37 36 31 31 32 31 28 23 22 23 22 23 23 21 16 12 15 14 15 18 20 22 23 27 28 31 35
37 36 39 47 45 43 41 37 57 57 61 49 53 47 44 49 55 53 47 51 56 50 44 43 36 34 36 35 29 24 23 26 27 33 21 23 16 11 15 14 15 17 22 24 26 28 30 32 37
37 34 35 41 48 47 46 38 44 46 68 55 58 48 48 48 56 55 55 51 46 49 45 41 44 46 43 33 33 35 38 29 28 21 25 28 22 23 19 15 15 19 23 28 30 31 33 35 38
38 37 37 38 45 49 48 45 46 44 56 65 62 60 50 52 53 56 59 54 53 48 50 49 45 37 43 42 33 34 26 26 28 24 31 36 32 35 29 19 17 21 25 29 34 35 36 37 40
35 36 37 37 40 44 43 44 45 47 44 49 66 65 55 53 55 54 58 59 57 50 45 47 51 43 42 44 41 38 41 32 30 35 36 38 44 46 25 25 22 22 23 29 38 39 40 41 42
35 36 35 37 39 40 38 40 41 45 45 43 41 67 63 56 55 55 56 60 60 58 54 52 58 51 45 47 39 43 36 29 38 41 49 36 40 32 25 28 29 25 27 30 37 41 45 46 46
37 37 37 37 39 39 40 39 38 40 44 48 45 47 67 65 57 56 57 58 62 61 60 59 56 49 50 50 46 45 38 40 38 43 37 33 34 38 41 32 36 26 33 34 39 42 49 50 50
39 40 40 40 40 40 41 41 39 39 42 44 47 48 51 65 65 62 62 67 59 59 60 63 62 60 59 55 56 56 51 45 39 39 38 33 40 38 41 37 34 34 38 37 41 44 51 52 48
33 35 36 38 38 39 40 40 42 42 43 44 45 48 50 52 53 75 68 62 61 60 57 60 63 63 61 55 58 58 58 45 46 42 38 36 35 37 43 40 40 41 36 41 44 48 53 51 44
29 31 34 35 36 36 37 37 36 38 41 45 47 47 49 53 56 57 62 77 68 65 65 62 63 63 61 56 60 55 51 56 51 49 44 45 41 43 46 42 44 40 41 42 40 46 52 47 40
27 28 29 30 31 31 33 38 34 35 36 43 46 48 51 55 58 60 60 58 83 71 73 68 67 65 65 61 59 59 56 54 53 52 50 51 50 43 46 48 51 42 46 39 38 44 48 41 38
28 30 30 32 34 36 36 42 40 37 38 41 44 47 51 53 57 61 64 63 64 65 75 74 69 69 68 64 68 63 63 63 60 58 54 48 47 50 47 51 50 45 42 37 39 43 44 39 38
29 31 33 34 35 37 37 41 41 42 46 47 48 49 51 54 58 62 66 69 67 67 66 66 78 74 72 71 72 72 69 67 63 60 55 53 52 53 50 47 45 46 43 37 39 41 41 38 38
29 28 31 32 32 31 33 41 41 37 45 49 53 56 58 58 61 64 67 68 71 69 68 68 65 71 78 75 75 77 73 70 68 60 56 50 51 53 55 51 50 40 37 37 39 40 37 38 36
25 26 28 33 29 24 25 31 25 26 35 37 43 48 58 64 65 66 69 70 71 71 72 70 68 65 66 67 67 74 73 65 61 58 55 49 47 53 55 50 45 38 36 39 39 38 36 36 34
25 26 27 27 27 27 26 23 21 28 35 37 42 46 48 48 58 69 70 71 72 73 72 73 71 68 68 66 63 63 60 57 58 58 56 49 47 52 52 49 41 37 37 40 38 35 37 34 33
27 23 23 23 27 29 26 26 28 34 39 38 40 44 46 49 49 49 62 72 74 74 74 73 72 71 68 66 63 62 60 59 57 53 54 50 49 48 47 43 38 37 38 38 36 37 35 33 33
25 23 22 24 26 30 30 30 36 36 29 31 35 45 50 50 54 55 49 56 72 76 76 75 73 70 70 68 63 59 57 57 56 53 52 51 51 46 43 39 36 37 37 37 35 36 33 34 32
24 23 24 26 30 31 32 29 33 33 33 38 43 48 54 50 51 54 55 49 49 69 77 77 75 71 68 67 65 60 57 54 51 52 54 53 50 44 39 36 35 35 36 36 36 34 33 33 30
Wind_Direction
232 226 224 221 222 215 207 204 216 218 218 218 217 220 216 215 213 163 195 186 204 148 78 343 295 54 7 10 10 10 11 28 32 25 17 16 6 1 354 352 351 352 347 345 343 342 341 334 335
237 234 222 223 224 214 207 204 215 222 222 219 217 216 216 210 204 182 206 201 177 143 105 8 242 273 273 353 0 9 15 25 42 34 27 20 21 14 9 5 4 353 351 347 345 338 342 343 345
243 234 221 219 224 217 211 208 216 224 225 221 215 220 218 218 212 198 209 205 193 144 138 287 275 288 248 5 8 6 10 12 16 6 8 9 4 10 357 357 354 351 355 350 345 344 342 347 350
237 240 236 224 222 223 219 216 218 222 224 222 217 215 216 221 214 211 216 214 213 160 195 262 275 278 264 253 328 335 345 345 345 347 343 339 343 348 354 352 352 357 358 359 355 351 349 352 347
228 233 239 234 224 226 220 219 224 223 221 222 218 221 218 221 213 219 223 224 218 199 227 249 267 274 260 256 247 285 305 320 331 337 337 338 335 336 341 347 355 2 7 10 7 5 2 356 353
234 233 235 232 229 223 214 221 223 225 220 221 219 221 218 218 217 216 227 231 227 208 221 239 250 266 269 266 244 263 290 301 313 316 316 318 326 331 339 354 0 11 11 9 3 3 358 355 353
236 233 235 234 228 221 215 221 227 227 226 221 219 219 223 217 216 218 223 230 232 212 219 225 250 260 271 268 254 254 272 291 302 306 308 306 313 321 342 350 0 6 10 7 0 358 355 350 346
239 239 236 236 233 228 211 215 226 225 228 224 221 219 217 216 215 217 221 228 235 220 229 233 249 256 263 255 253 251 261 282 295 295 300 306 308 313 329 351 357 0 5 1 356 353 350 349 345
238 240 242 240 238 236 222 212 215 225 224 226 222 221 219 215 215 217 220 228 231 217 201 226 236 244 246 256 249 245 258 271 277 280 286 304 316 316 320 338 346 351 353 354 350 350 349 344 344
239 236 241 245 236 235 235 223 212 222 222 225 224 221 220 217 216 219 220 227 231 222 222 210 224 230 234 243 247 246 259 268 270 271 276 284 300 312 320 331 336 338 340 340 342 343 344 340 340
245 239 242 240 241 235 235 229 215 213 214 219 221 218 217 220 220 221 220 224 224 221 221 206 220 231 232 237 242 251 257 262 267 266 268 270 281 300 307 321 329 327 329 329 330 332 333 334 331
244 249 247 247 245 235 243 229 225 213 208 212 217 213 214 218 219 221 224 225 223 218 218 202 206 213 225 229 229 231 240 256 264 260 255 261 268 290 303 313 319 322 324 322 322 321 324 325 322
242 246 252 251 241 246 243 232 228 225 207 209 216 210 209 217 218 221 222 229 223 229 230 231 219 214 235 223 222 231 242 248 251 261 243 252 255 268 289 302 312 316 315 318 316 315 316 318 317
245 246 250 248 244 240 243 238 247 228 222 203 211 209 211 213 219 219 224 226 220 227 225 224 231 228 222 216 225 233 240 235 255 278 240 248 245 246 258 281 299 307 312 314 313 314 312 313 313
250 246 246 245 245 245 246 242 248 246 224 206 204 214 211 215 218 218 223 224 230 222 232 238 233 209 219 223 220 231 241 231 238 254 246 242 245 239 257 262 287 302 308 309 312 310 313 311 310
249 249 245 245 245 243 243 245 244 251 239 228 210 208 208 214 219 220 222 223 227 227 216 229 231 237 230 232 223 226 234 229 247 248 248 243 253 299 263 282 272 283 294 305 306 310 311 307 307
247 249 247 249 249 248 245 243 245 243 250 248 244 218 213 211 217 222 223 226 226 229 231 231 239 242 232 228 260 248 238 242 244 245 249 246 246 289 285 281 286 275 283 300 302 308 302 303 304
249 249 248 247 247 249 249 244 243 241 240 244 245 241 223 218 218 220 222 226 227 228 232 233 236 241 248 240 254 231 250 255 264 269 275 270 282 284 285 260 284 268 286 302 306 304 300 303 305
252 252 251 250 248 246 248 249 244 242 239 238 237 243 242 227 221 224 225 227 227 229 227 234 240 242 245 252 255 252 258 260 266 263 267 264 273 278 274 276 283 288 294 306 301 296 296 298 305
253 254 255 254 254 255 251 250 249 248 244 241 239 235 236 242 244 225 225 227 224 228 232 235 237 240 244 245 250 253 257 244 263 259 263 263 268 271 277 282 281 285 298 301 296 291 293 298 304
254 253 254 255 256 258 255 250 249 249 247 249 246 240 237 237 239 238 240 224 225 229 233 236 239 241 240 243 244 249 249 263 263 263 267 272 268 270 268 274 280 288 290 296 292 292 292 296 300
254 253 254 255 257 257 261 259 253 252 251 249 248 245 242 238 238 241 240 241 227 227 228 234 236 240 241 242 242 248 253 262 266 265 268 265 269 270 267 270 279 286 291 290 287 289 290 297 299
257 260 260 261 262 262 262 263 260 261 258 255 253 251 248 244 241 239 240 239 238 238 230 230 233 236 237 239 244 246 252 254 258 262 264 265 262 269 275 272 282 285 286 289 291 288 291 296 297
262 263 265 266 267 269 271 270 261 272 271 268 260 254 252 249 244 241 240 239 239 239 239 240 231 232 236 239 241 247 246 252 257 259 262 266 273 275 275 274 280 286 288 286 286 289 290 292 293
259 260 264 266 269 277 277 276 281 281 277 272 265 260 256 251 247 245 240 238 239 238 239 240 241 236 236 240 244 245 248 256 260 261 266 266 274 272 274 276 282 287 290 283 283 285 289 289 288
253 256 264 274 281 278 278 284 279 275 272 272 271 268 260 253 247 245 244 240 238 238 238 238 239 238 239 242 245 246 250 252 255 263 269 269 268 274 275 277 277 278 283 279 281 284 286 286 285
245 254 264 278 280 279 283 279 271 268 274 278 272 269 268 261 254 246 242 241 240 237 237 238 238 238 238 240 241 246 250 250 254 261 267 261 262 266 268 267 272 280 281 280 279 284 282 283 282
254 258 267 277 286 288 284 285 279 280 289 285 275 270 267 272 271 259 246 240 239 239 236 236 237 238 239 238 239 242 247 250 252 254 259 261 260 261 260 263 272 277 278 275 279 279 281 278 278
257 259 267 277 284 290 292 288 293 300 291 275 271 268 268 267 271 272 260 243 237 237 235 234 233 234 237 241 242 241 243 247 250 252 255 257 258 258 260 267 270 273 274 274 277 277 274 272 276
242 256 268 278 284 286 291 294 308 295 278 272 268 271 270 275 271 269 265 253 238 234 233 232 231 231 234 237 239 241 243 246 249 253 254 254 257 260 264 267 266 269 269 272 272 270 267 271 278
Height
5846 5851 5855 5858 5863 5867 5875 5879 5877 5877 5877 5878 5882 5883 5885 5889 5896 5901 5899 5901 5903 5902 5904 5906 5908 5909 5909 5909 5909 5907 5906 5905 5905 5905 5904 5903 5903 5904 5903 5902 5900 5900 5899 5897 5895 5893 5892 5891 5888
5839 5843 5848 5851 5856 5864 5871 5874 5871 5869 5873 5874 5876 5877 5881 5888 5893 5896 5897 5898 5899 5899 5902 5905 5906 5908 5908 5909 5909 5908 5907 5906 5905 5905 5905 5905 5904 5904 5903 5903 5901 5900 5898 5897 5894 5892 5890 5889 5887
5831 5834 5840 5843 5849 5858 5864 5866 5865 5865 5865 5866 5870 5875 5879 5886 5889 5892 5892 5894 5897 5897 5900 5903 5905 5906 5906 5907 5908 5908 5908 5907 5906 5905 5905 5905 5906 5904 5904 5903 5901 5900 5898 5897 5896 5895 5892 5889 5885
5824 5828 5832 5836 5844 5850 5855 5857 5856 5857 5859 5860 5866 5871 5876 5878 5882 5887 5889 5891 5894 5894 5897 5900 5901 5903 5904 5905 5906 5908 5908 5907 5907 5906 5906 5905 5904 5903 5901 5900 5900 5898 5896 5895 5893 5892 5889 5885 5883
5817 5821 5823 5829 5836 5841 5845 5848 5847 5848 5851 5855 5861 5863 5869 5875 5881 5884 5885 5887 5890 5891 5894 5897 5899 5900 5901 5902 5903 5905 5906 5906 5906 5905 5904 5904 5902 5901 5900 5899 5898 5896 5894 5891 5890 5888 5886 5884 5882
5808 5812 5814 5823 5825 5826 5836 5838 5840 5843 5846 5849 5855 5857 5864 5871 5877 5880 5882 5884 5885 5888 5891 5893 5895 5897 5899 5900 5901 5903 5904 5904 5904 5904 5903 5902 5901 5900 5899 5898 5896 5894 5892 5890 5888 5886 5884 5882 5880
5798 5803 5806 5813 5816 5819 5829 5833 5835 5839 5842 5843 5848 5852 5857 5865 5871 5874 5878 5880 5881 5884 5887 5889 5892 5894 5895 5897 5899 5900 5901 5902 5902 5901 5901 5901 5899 5898 5896 5895 5893 5891 5889 5889 5888 5885 5883 5880 5878
5791 5794 5797 5804 5811 5814 5818 5825 5828 5833 5837 5838 5841 5845 5850 5859 5864 5867 5872 5875 5876 5879 5883 5885 5887 5890 5892 5893 5895 5897 5899 5900 5901 5900 5899 5898 5897 5896 5893 5891 5889 5888 5887 5887 5886 5884 5881 5878 5875
5782 5784 5789 5796 5803 5807 5811 5815 5820 5825 5829 5832 5834 5840 5846 5852 5857 5860 5865 5869 5871 5874 5875 5880 5883 5885 5888 5889 5892 5893 5896 5897 5898 5897 5896 5895 5894 5894 5891 5888 5887 5886 5885 5884 5883 5881 5879 5877 5872
5772 5776 5781 5787 5793 5798 5804 5808 5812 5816 5823 5826 5829 5833 5840 5846 5850 5854 5858 5864 5866 5869 5872 5875 5878 5880 5882 5885 5887 5889 5891 5892 5894 5894 5894 5892 5891 5890 5889 5887 5885 5884 5883 5881 5880 5878 5876 5874 5870
5765 5768 5772 5778 5786 5787 5795 5797 5799 5805 5812 5816 5821 5825 5832 5839 5844 5849 5853 5857 5862 5863 5865 5868 5872 5874 5876 5879 5882 5884 5885 5887 5889 5890 5891 5890 5888 5887 5887 5885 5883 5882 5880 5879 5879 5877 5873 5871 5868
5756 5760 5763 5770 5777 5780 5785 5787 5790 5793 5802 5807 5810 5815 5822 5828 5835 5840 5845 5847 5853 5856 5859 5860 5864 5867 5870 5872 5874 5877 5879 5882 5884 5885 5886 5887 5886 5884 5885 5883 5881 5879 5878 5877 5875 5873 5871 5867 5866
5748 5751 5755 5761 5768 5771 5773 5777 5780 5784 5788 5796 5800 5806 5812 5818 5825 5831 5834 5839 5838 5845 5851 5855 5857 5859 5862 5866 5869 5871 5874 5876 5878 5879 5880 5882 5882 5880 5882 5880 5878 5875 5875 5874 5871 5869 5866 5864 5861
5742 5744 5747 5752 5758 5761 5762 5769 5766 5776 5775 5782 5789 5794 5802 5807 5814 5821 5826 5829 5829 5835 5840 5845 5848 5850 5855 5857 5862 5865 5866 5868 5871 5873 5875 5877 5876 5875 5876 5875 5873 5872 5870 5869 5867 5864 5861 5859 5855
5736 5738 5739 5744 5749 5751 5753 5760 5760 5762 5760 5766 5775 5784 5791 5797 5802 5810 5815 5821 5824 5826 5831 5838 5841 5839 5845 5849 5854 5858 5860 5859 5863 5867 5868 5871 5869 5868 5869 5870 5869 5866 5865 5864 5862 5859 5856 5853 5851
5730 5732 5733 5736 5740 5744 5747 5751 5752 5752 5755 5762 5766 5770 5777 5787 5792 5798 5805 5811 5816 5818 5819 5825 5832 5836 5837 5840 5842 5848 5850 5853 5856 5859 5860 5863 5863 5862 5861 5864 5862 5860 5859 5858 5856 5853 5850 5846 5844
5722 5724 5727 5728 5730 5736 5738 5741 5744 5747 5750 5755 5760 5764 5770 5775 5782 5787 5794 5799 5805 5811 5814 5819 5823 5828 5830 5833 5837 5839 5839 5844 5847 5848 5850 5854 5854 5857 5856 5857 5858 5855 5853 5852 5850 5847 5843 5840 5837
5715 5717 5720 5722 5723 5727 5730 5733 5738 5741 5744 5747 5752 5754 5762 5768 5773 5779 5783 5787 5794 5801 5806 5808 5814 5817 5824 5827 5828 5828 5832 5837 5840 5843 5842 5849 5846 5851 5847 5845 5849 5846 5846 5846 5843 5841 5837 5834 5830
5706 5709 5711 5713 5715 5720 5722 5724 5729 5732 5735 5739 5743 5747 5748 5755 5762 5768 5775 5778 5783 5789 5795 5799 5804 5808 5813 5816 5818 5822 5826 5830 5832 5836 5839 5840 5844 5845 5843 5842 5840 5841 5841 5839 5837 5834 5829 5825 5824
5699 5700 5702 5704 5706 5708 5714 5718 5719 5723 5726 5729 5733 5738 5740 5742 5748 5756 5762 5766 5772 5778 5782 5788 5792 5797 5803 5807 5810 5814 5816 5821 5823 5826 5831 5836 5839 5839 5833 5831 5832 5834 5833 5833 5831 5826 5822 5819 5818
5692 5693 5694 5696 5696 5698 5701 5706 5711 5714 5715 5717 5721 5725 5730 5732 5734 5739 5745 5752 5759 5765 5769 5775 5780 5785 5792 5796 5797 5802 5806 5810 5815 5821 5825 5830 5833 5832 5830 5826 5825 5828 5827 5826 5823 5819 5815 5813 5812
5686 5687 5688 5689 5691 5692 5693 5694 5701 5704 5705 5705 5708 5712 5716 5719 5722 5725 5730 5735 5741 5747 5755 5760 5766 5773 5778 5784 5788 5791 5797 5801 5808 5813 5815 5820 5824 5824 5822 5820 5819 5820 5819 5818 5815 5812 5807 5807 5805
5679 5679 5681 5682 5683 5685 5688 5686 5691 5693 5692 5693 5696 5698 5702 5706 5710 5712 5714 5719 5725 5731 5738 5745 5752 5759 5764 5769 5776 5780 5786 5792 5798 5801 5806 5810 5813 5815 5814 5811 5812 5812 5811 5810 5808 5804 5801 5800 5798
5670 5670 5671 5672 5673 5674 5676 5675 5685 5680 5676 5678 5680 5682 5684 5688 5691 5695 5699 5702 5708 5715 5722 5729 5738 5744 5750 5755 5762 5768 5774 5780 5785 5790 5796 5799 5800 5802 5802 5803 5804 5802 5802 5801 5799 5796 5795 5793 5791
5661 5662 5662 5663 5663 5664 5663 5664 5671 5663 5661 5659 5662 5664 5667 5670 5671 5674 5679 5685 5692 5700 5705 5711 5719 5730 5736 5742 5747 5753 5761 5768 5772 5778 5784 5788 5790 5792 5792 5793 5793 5791 5794 5793 5791 5788 5788 5786 5784
5653 5654 5653 5651 5653 5654 5652 5655 5656 5653 5648 5645 5643 5644 5647 5647 5650 5654 5661 5668 5676 5683 5690 5696 5704 5716 5722 5730 5736 5741 5749 5755 5760 5765 5771 5776 5778 5780 5779 5781 5781 5783 5785 5784 5783 5781 5779 5778 5777
5646 5646 5646 5645 5643 5642 5645 5646 5648 5644 5639 5635 5632 5632 5628 5627 5627 5635 5643 5651 5659 5667 5674 5682 5690 5700 5706 5715 5723 5730 5735 5742 5749 5755 5758 5765 5768 5769 5770 5770 5772 5775 5775 5775 5774 5773 5771 5770 5769
5637 5639 5638 5636 5635 5634 5635 5635 5635 5632 5627 5623 5622 5618 5618 5617 5619 5619 5625 5634 5640 5647 5657 5666 5674 5684 5691 5701 5710 5718 5724 5731 5738 5744 5749 5753 5756 5759 5761 5762 5764 5764 5765 5766 5766 5764 5764 5763 5762
5630 5629 5630 5629 5628 5626 5625 5627 5622 5618 5614 5612 5610 5607 5603 5605 5605 5607 5611 5614 5620 5628 5637 5647 5658 5668 5677 5686 5695 5705 5714 5720 5726 5732 5737 5742 5746 5749 5751 5753 5754 5755 5756 5757 5757 5757 5757 5756 5755
5622 5622 5622 5621 5621 5618 5616 5618 5613 5607 5603 5600 5597 5595 5590 5588 5591 5592 5594 5598 5599 5604 5616 5628 5641 5654 5665 5672 5681 5692 5700 5708 5715 5720 5726 5730 5735 5739 5742 5744 5745 5746 5748 5749 5749 5750 5749 5749 5748